GW6707 Weather Reports


time (UTC)temp
F
wind
direction
speed
knots
gust
knots
rain 1hr
in
rain 24hr
in
rain mn
in
humidity
%
barometer
mb
20260507030021 49 227 0.0 1.7 0.02 1.79 0.52 92 1013.1
20260507024544 49 227 0.0 0.0 0.03 1.79 0.52 92 1013.2
20260507023025 49 227 0.0 1.7 0.03 1.79 0.52 91 1013.3
20260507021511 49 316 0.0 1.7 0.05 1.78 0.51 91 1013.3
20260507020017 49 313 0.0 1.7 0.07 1.77 0.50 90 1013.3
20260507014535 49 309 0.0 1.7 0.12 1.77 0.49 90 1013.3
20260507013028 48 275 0.0 1.7 0.21 1.76 0.48 90 1013.1
20260507011539 48 138 0.0 1.7 0.22 1.74 0.46 91 1013.2
20260507010017 48 319 0.9 4.3 0.25 1.70 0.42 90 1013.3
20260507004521 48 244 0.0 1.7 0.26 1.65 0.37 90 1013.2
20260507003024 48 315 0.0 1.7 0.19 1.55 0.27 90 1013.0
20260507001528 49 182 0.0 1.7 0.17 1.52 0.24 89 1013.0
20260507000030 50 312 0.0 2.6 0.14 1.45 0.17 86 1013.2
20260506234518 50 327 0.9 3.5 0.07 1.39 0.10 86 1013.0
20260506233024 49 313 0.0 1.7 0.07 1.37 0.07 88 1012.9
20260506231529 49 310 0.0 0.9 0.06 1.36 0.07 86 1013.2
20260506230029 49 350 0.9 1.7 0.02 1.33 0.02 85 1013.1
20260506224530 49 259 0.0 1.7 0.02 1.35 0.02 85 1013.1
20260506223020 50 284 0.0 1.7 0.00 1.37 0.00 85 1013.1
20260506221506 50 241 0.9 3.5 0.00 1.48 0.00 84 1013.0
20260506220006 51 238 0.9 2.6 0.00 1.50 0.00 82 1012.8
20260506214524 51 312 0.0 4.3 0.00 1.51 1.50 79 1012.8
20260506213018 50 5 0.0 3.5 0.00 1.51 1.50 85 1012.6
20260506211524 50 246 0.9 1.7 0.00 1.54 1.50 87 1012.8
20260506210006 50 315 0.0 2.6 0.00 1.54 1.50 87 1013.0
20260506204525 52 320 4.3 8.7 0.00 1.55 1.50 79 1012.6
20260506203015 51 360 0.9 2.6 0.00 1.55 1.50 81 1012.2
20260506201524 50 307 0.0 0.9 0.00 1.56 1.50 89 1012.4
20260506200025 50 307 0.0 1.7 0.00 1.59 1.50 88 1012.3
20260506194509 49 311 0.0 1.7 0.00 1.62 1.50 89 1012.0
20260506193017 49 207 0.0 1.7 0.00 1.68 1.50 90 1011.8
20260506191519 50 310 0.0 1.7 0.03 1.70 1.50 89 1011.6
20260506190023 51 317 0.0 1.7 0.04 1.71 1.50 87 1011.3
20260506184526 51 320 3.5 5.2 0.04 1.74 1.50 87 1011.2
20260506183011 50 309 0.9 7.8 0.04 1.74 1.50 89 1010.3
20260506181516 51 203 0.0 1.7 0.00 1.71 1.46 88 1011.1
20260506180022 52 94 0.0 1.7 0.00 1.70 1.45 86 1011.0
20260506174524 53 5 0.9 1.7 0.00 1.72 1.45 83 1010.6
20260506173009 53 331 1.7 3.5 0.00 1.76 1.45 82 1010.2
20260506171520 52 268 0.0 4.3 0.00 1.80 1.45 83 1010.0
20260506170019 53 231 0.0 2.6 0.00 1.81 1.44 79 1009.8
20260506164529 54 293 0.9 4.3 0.00 1.81 1.44 75 1009.5
20260506163028 54 331 2.6 7.0 0.00 1.82 1.44 75 1009.5
20260506161510 55 211 0.9 5.2 0.00 1.82 1.44 72 1009.2
20260506160018 55 272 0.9 6.1 0.00 1.83 1.44 77 1008.9
20260506154530 53 329 0.9 8.7 0.00 1.83 1.44 81 1009.3
20260506153036 53 340 0.9 3.5 0.00 1.84 1.44 83 1009.7
20260506151531 53 316 0.9 3.5 0.00 1.84 1.44 82 1009.8
20260506150014 54 219 1.7 3.5 0.00 1.84 1.44 80 1009.7
20260506144548 55 287 1.7 7.0 0.00 1.85 1.44 82 1009.6
20260506143023 56 271 1.7 5.2 0.00 1.85 1.44 84 1009.5
20260506141529 56 328 2.6 6.1 0.00 1.85 1.44 87 1009.8
20260506140040 55 206 0.9 1.7 0.00 1.85 1.44 91 1009.7
20260506134517 54 228 0.9 1.7 0.02 1.85 1.44 92 1009.8
20260506133020 53 316 0.0 1.7 0.42 1.85 1.44 94 1010.0
20260506131506 52 196 0.9 1.7 0.70 1.86 1.44 95 1010.1
20260506130005 50 113 0.0 1.7 0.70 1.87 1.44 93 1009.9
20260506124504 48 314 2.6 9.6 0.68 1.85 1.42 90 1009.9
20260506123004 50 5 3.5 17.4 0.28 1.45 1.02 89 1009.8
20260506121503 51 297 4.3 19.1 0.00 1.17 0.74 89 1009.3
20260506120005 53 121 1.7 9.6 0.03 1.17 0.74 95 1009.7
20260506114512 53 117 0.9 6.1 0.05 1.17 0.74 95 1009.7
20260506113004 52 113 0.9 5.2 0.05 1.17 0.74 95 1009.8
20260506111503 52 154 1.7 7.8 0.05 1.17 0.73 95 1009.7
20260506110003 52 136 2.6 8.7 0.03 1.15 0.70 95 1009.6
20260506104507 51 138 4.3 8.7 0.00 1.13 0.68 95 1009.6
20260506103004 51 174 5.2 13.0 0.00 1.13 0.68 95 1009.8
20260506101504 51 148 3.5 8.7 0.00 1.12 0.67 95 1009.9
20260506100015 51 154 2.6 11.3 0.00 1.13 0.67 95 1009.7
20260506094508 51 242 2.6 7.0 0.00 1.14 0.67 96 1009.8
20260506093006 51 225 3.5 8.7 0.01 1.15 0.67 96 1009.7
20260506091504 51 242 1.7 8.7 0.01 1.17 0.67 96 1009.6
20260506090007 51 251 5.2 13.0 0.01 1.18 0.67 96 1009.6
20260506084507 51 163 4.3 11.3 0.00 1.20 0.66 96 1009.7
20260506083008 51 146 2.6 8.7 0.00 1.19 0.66 96 1009.7
20260506081513 51 145 3.5 10.4 0.00 1.20 0.66 96 1009.8
20260506073009 51 215 4.3 9.6 0.00 1.22 0.66 96 1009.7
20260506071510 51 192 1.7 9.6 0.00 1.23 0.65 96 1009.8
20260506061510 51 118 4.3 8.7 0.00 1.40 0.64 96 1009.9
20260506044515 51 141 2.6 7.8 0.12 1.44 0.63 96 1010.6
20260506043016 51 116 1.7 6.1 0.16 1.44 0.62 96 1010.7
20260506041516 51 139 2.6 6.1 0.23 1.41 0.59 95 1010.8
20260506040017 51 136 0.9 4.3 0.30 1.37 0.54 95 1010.9
20260506034515 51 136 1.7 5.2 0.27 1.34 0.51 95 1010.9
20260506033026 51 313 0.0 2.6 0.22 1.29 0.45 95 1011.0
20260506031529 51 186 0.0 1.7 0.11 1.18 0.35 95 1011.1